Retour au catalogue

FENGYUN 1C DEB

ActifSSO
NORAD 37017·DEBRIS·🇨🇳 China

Lancé May 10, 1999 depuis Taiyuan Satellite Launch Center

Loading…

Prochains Passages (prochaines 24 heures)

TLE

VieillissantSource: Space-Track

Époque: Sep 9, 2026, 03:27 UTC

1 37017U 99025ECZ 26252.14399760  .00003436  00000-0  66026-3 0  9998
2 37017  98.8155 210.6705 0271015 278.2954  78.7591 14.43562078650592

Suivez FENGYUN 1C DEB en temps réel avec AllMySat

Download on the App Store